Weather History for KPPO - January, 2014

Change the Weather History Date:

Thursday, January 9, 2014

  Actual Average (KVPZ) Record (KVPZ)
Temperature  
Mean Temperature 8 °F 24 °F  
Max Temperature 26 °F 31 °F 53 °F (2002)
Min Temperature -9 °F 16 °F -9 °F (1999)
Degree Days  
Heating Degree Days 56 41  
Month to date heating degree days 369  
Since 1 July heating degree days 2771  
Cooling Degree Days 0 0  
Month to date cooling degree days 0  
Year to date cooling degree days 0  
Moisture  
Dew Point 7 °F    
Average Humidity 87    
Maximum Humidity 96    
Minimum Humidity 79    
Precipitation  
Precipitation 0.00 in 0.05 in 0.45 in (2005)
Month to date precipitation 0.49  
Year to date precipitation 0.49  
Sea Level Pressure  
Sea Level Pressure 30.38 in    
Wind  
Wind Speed 2 mph (SE)    
Max Wind Speed 8 mph    
Max Gust Speed -    
Visibility 6 miles    
Events Snow    
T = Trace of Precipitation, MM = Missing Value Source: NWS Daily Summary

Daily Weather History Graph

Daily Weather History Graph

Search for Another Location

Airport or City:

Trip Planner

Search our weather history database for the weather conditions in past years. The results will help you decide how hot, cold, wet, or windy it might be!

Date:

Astronomy

Jan. 09, 2014 Rise Set
Actual Time 7:13 AM CST 4:35 PM CST
Civil Twilight 6:42 AM CST 5:06 PM CST
Nautical Twilight 6:07 AM CST 5:40 PM CST
Astronomical Twilight 5:34 AM CST 6:14 PM CST
Moon 12:03 PM CST (1/9) 1:18 AM CST (1/9)
Length of Visible Light 10h 24m
Length of Day
9h 22m
Waxing Gibbous, 66% of the Moon is Illuminated
Jan 9
Waxing Gibbous
Jan 15
Full
Jan 23
Last Quarter
Jan 30
New
Feb 6
First Quarter

Hourly Weather History & Observations

Time (CST) Temp. Windchill Dew Point Humidity Pressure Visibility Wind Dir Wind Speed Gust Speed Precip Events Conditions
12:15 AM -9.0 °F - -14.1 °F 79% 30.49 in 7.0 mi Calm Calm - N/A   Clear
12:35 AM -7.8 °F - -12.6 °F 79% 30.49 in 7.0 mi Calm Calm - N/A   Clear
12:55 AM -7.8 °F - -12.3 °F 81% 30.49 in 7.0 mi Calm Calm - N/A   Clear
1:15 AM -8.5 °F - -13.5 °F 79% 30.50 in 10.0 mi Calm Calm - N/A   Clear
1:35 AM -6.0 °F - -10.3 °F 82% 30.51 in 10.0 mi Calm Calm - N/A   Clear
1:55 AM -8.1 °F - -13.0 °F 79% 30.51 in 7.0 mi Calm Calm - N/A   Clear
2:15 AM -8.5 °F - -13.4 °F 79% 30.52 in 7.0 mi Calm Calm - N/A   Clear
2:35 AM -4.7 °F - -8.9 °F 82% 30.51 in 7.0 mi Calm Calm - N/A   Clear
2:55 AM -8.1 °F - -13.0 °F 79% 30.51 in 7.0 mi Calm Calm - N/A   Clear
3:15 AM -8.0 °F - -13.0 °F 79% 30.51 in 4.0 mi Calm Calm - N/A   Haze
3:35 AM -8.5 °F - -13.5 °F 79% 30.50 in 10.0 mi Calm Calm - N/A   Clear
3:55 AM -7.4 °F - -12.1 °F 80% 30.50 in 10.0 mi Calm Calm - N/A   Clear
4:15 AM -8.0 °F - -12.8 °F 79% 30.50 in 7.0 mi Calm Calm - N/A   Clear
4:35 AM -7.1 °F - -12.1 °F 79% 30.49 in 5.0 mi Calm Calm - N/A   Haze
4:55 AM -5.1 °F - -9.8 °F 80% 30.49 in 5.0 mi Calm Calm - N/A   Haze
5:15 AM -6.0 °F - -10.7 °F 80% 30.49 in 0.2 mi Calm Calm - N/A   Haze
5:35 AM -5.3 °F - -9.8 °F 81% 30.49 in 2.5 mi Calm Calm - N/A   Haze
5:55 AM -4.2 °F - -8.1 °F 83% 30.49 in 5.0 mi Calm Calm - N/A   Scattered Clouds
6:15 AM -4.4 °F - -8.7 °F 82% 30.49 in 7.0 mi Calm Calm - N/A   Clear
6:35 AM -4.4 °F - -8.7 °F 82% 30.49 in 7.0 mi Calm Calm - N/A   Clear
6:55 AM -3.1 °F - -7.1 °F 83% 30.49 in 7.0 mi Calm Calm - N/A   Scattered Clouds
7:15 AM -2.2 °F - -6.3 °F 83% 30.49 in 5.0 mi Calm Calm - N/A   Mostly Cloudy
7:35 AM -0.8 °F - -4.4 °F 85% 30.49 in 5.0 mi Calm Calm - N/A   Overcast
7:55 AM 2.1 °F - -1.5 °F 85% 30.48 in 7.0 mi Calm Calm - N/A   Overcast
8:15 AM 3.4 °F -5.9 °F -0.2 °F 85% 30.48 in 7.0 mi ESE 4.6 mph - N/A   Mostly Cloudy
8:35 AM 3.9 °F -5.3 °F 0.5 °F 86% 30.49 in 10.0 mi ESE 4.6 mph - N/A   Scattered Clouds
8:55 AM 5.4 °F -3.6 °F 2.1 °F 86% 30.48 in 10.0 mi ESE 4.6 mph - N/A   Scattered Clouds
9:15 AM 7.2 °F 0.3 °F 4.1 °F 87% 30.48 in 10.0 mi East 3.5 mph - N/A   Overcast
9:35 AM 8.6 °F -1.3 °F 5.9 °F 89% 30.47 in 10.0 mi ESE 5.8 mph - N/A   Overcast
9:55 AM 9.5 °F -1.5 °F 6.8 °F 89% 30.47 in 10.0 mi ESE 6.9 mph - N/A   Overcast
10:15 AM 10.4 °F 0.8 °F 7.7 °F 89% 30.46 in 10.0 mi ESE 5.8 mph - N/A   Overcast
10:35 AM 12.0 °F 2.7 °F 9.3 °F 89% 30.44 in 10.0 mi ESE 5.8 mph - N/A   Overcast
10:55 AM 13.1 °F 2.8 °F 10.8 °F 90% 30.42 in 10.0 mi ESE 6.9 mph - N/A   Overcast
11:15 AM 15.1 °F 5.2 °F 12.9 °F 91% 30.40 in 10.0 mi ESE 6.9 mph - N/A   Overcast
11:35 AM 15.8 °F 6.1 °F 13.8 °F 92% 30.39 in 10.0 mi SE 6.9 mph - N/A   Mostly Cloudy
11:55 AM 16.3 °F 9.2 °F 14.0 °F 90% 30.38 in 10.0 mi SE 4.6 mph - N/A   Mostly Cloudy
12:15 PM 16.7 °F 7.2 °F 14.9 °F 93% 30.37 in 5.0 mi ESE 6.9 mph - N/A Snow Light Snow
12:35 PM 16.7 °F 9.6 °F 14.7 °F 92% 30.36 in 10.0 mi SE 4.6 mph - N/A   Overcast
12:55 PM 17.6 °F 9.3 °F 14.9 °F 89% 30.36 in 10.0 mi SE 5.8 mph - N/A   Mostly Cloudy
1:15 PM 18.5 °F 8.4 °F 14.0 °F 83% 30.35 in 4.0 mi ESE 8.1 mph - N/A Snow Light Snow
1:35 PM 19.2 °F 10.2 °F 14.4 °F 81% 30.34 in 2.5 mi ESE 6.9 mph - N/A Snow Light Snow
1:55 PM 19.8 °F 10.8 °F 14.9 °F 81% 30.33 in 1.8 mi ESE 6.9 mph - N/A Snow Light Snow
2:15 PM 19.8 °F 10.8 °F 15.8 °F 85% 30.33 in 1.0 mi ESE 6.9 mph - N/A Snow Light Snow
2:35 PM 20.1 °F 11.3 °F 16.5 °F 86% 30.33 in 1.8 mi SE 6.9 mph - N/A Snow Light Snow
2:55 PM 20.1 °F 11.3 °F 16.7 °F 87% 30.33 in 1.8 mi ESE 6.9 mph - N/A Snow Light Snow
3:15 PM 20.1 °F 12.3 °F 17.1 °F 88% 30.32 in 1.2 mi East 5.8 mph - N/A Snow Light Snow
3:35 PM 19.9 °F 10.1 °F 16.9 °F 88% 30.32 in 1.5 mi ESE 8.1 mph - N/A Snow Light Snow
3:55 PM 19.9 °F 11.1 °F 17.2 °F 89% 30.32 in 1.5 mi ESE 6.9 mph - N/A Snow Light Snow
4:15 PM 20.1 °F 12.3 °F 17.6 °F 90% 30.31 in 1.8 mi ESE 5.8 mph - N/A Snow Light Snow
5:15 PM 20.7 °F 11.9 °F 18.3 °F 91% 30.30 in 2.5 mi ESE 6.9 mph - N/A Snow Light Snow
5:35 PM 20.8 °F 14.4 °F 18.5 °F 91% 30.30 in 5.0 mi SE 4.6 mph - N/A   Mostly Cloudy
5:55 PM 21.0 °F 12.4 °F 18.5 °F 90% 30.29 in 4.0 mi ESE 6.9 mph - N/A Snow Light Snow
6:15 PM 21.2 °F 12.6 °F 18.9 °F 91% 30.29 in 5.0 mi SE 6.9 mph - N/A Snow Light Snow
6:35 PM 21.2 °F 13.6 °F 18.9 °F 91% 30.28 in 5.0 mi ESE 5.8 mph - N/A   Overcast
6:55 PM 21.6 °F 13.0 °F 19.0 °F 90% 30.28 in 5.0 mi SE 6.9 mph - N/A   Overcast
7:15 PM 21.9 °F 14.5 °F 19.4 °F 90% 30.28 in 5.0 mi SE 5.8 mph - N/A   Overcast
7:35 PM 22.1 °F 14.7 °F 19.4 °F 89% 30.27 in 2.5 mi SE 5.8 mph - N/A Snow Light Snow
7:55 PM 22.5 °F 14.1 °F 20.1 °F 91% 30.26 in 4.0 mi SE 6.9 mph - N/A   Overcast
8:15 PM 22.8 °F 15.5 °F 20.3 °F 90% 30.25 in 4.0 mi SE 5.8 mph - N/A   Scattered Clouds
8:35 PM 23.0 °F 15.8 °F 21.0 °F 92% 30.24 in 2.5 mi SSE 5.8 mph - N/A Snow Light Snow
8:55 PM 23.5 °F 15.4 °F 21.6 °F 92% 30.23 in 2.5 mi SSE 6.9 mph - N/A Snow Light Snow
9:15 PM 23.7 °F 17.8 °F 21.9 °F 93% 30.22 in 1.8 mi SE 4.6 mph - N/A Snow Light Snow
9:35 PM 24.3 °F 19.9 °F 22.6 °F 94% 30.22 in 2.0 mi SSE 3.5 mph - N/A Snow Light Snow
9:55 PM 25.0 °F 19.3 °F 23.4 °F 94% 30.21 in 3.0 mi SSE 4.6 mph - N/A Snow Light Snow
10:15 PM 25.5 °F 19.9 °F 23.9 °F 94% 30.21 in 3.0 mi SSE 4.6 mph - N/A Snow Light Snow
10:35 PM 25.9 °F 19.2 °F 24.4 °F 94% 30.20 in 3.0 mi South 5.8 mph - N/A Snow Light Snow
10:55 PM 26.2 °F 18.6 °F 24.8 °F 94% 30.19 in 2.5 mi SSE 6.9 mph - N/A Snow Light Snow
11:15 PM 26.4 °F 20.9 °F 25.0 °F 94% 30.19 in 3.0 mi South 4.6 mph - N/A Snow Light Snow
11:35 PM 26.6 °F 20.0 °F 25.3 °F 95% 30.18 in 3.0 mi SSE 5.8 mph - N/A Snow Light Snow
11:55 PM 26.6 °F 20.0 °F 25.7 °F 96% 30.17 in 3.0 mi South 5.8 mph - N/A   Overcast